SCP
0 0 0 0 0 0 1 1 3 2 2 2 1 1 1 2 1 1 1 1 1 2 1 1 1 1 1 1 0 0 0 0 0 0 0 0 0 0 0 0 0 0 0
0 0 0 0 0 0 1 1 1 2 2 2 1 1 1 1 1 1 1 1 1 1 1 1 1 1 1 0 0 0 0 0 0 0 0 0 0 0 0 0 0 0 0
0 0 0 0 0 0 0 0 1 1 2 2 2 3 2 1 1 1 1 1 1 1 1 1 1 0 0 0 0 0 0 0 0 0 0 0 0 0 0 0 0 0 0
0 0 0 0 0 0 0 1 1 1 1 2 2 3 1 1 1 1 1 1 1 0 0 0 0 0 0 0 0 0 0 0 0 0 -0 0 0 0 0 0 0 0 0
0 -0 0 0 0 0 0 1 1 1 1 1 1 1 1 1 0 0 1 1 1 0 0 0 0 0 0 0 0 0 0 -0 -0 -0 -0 0 0 -0 0 0 0 0 0
0 0 0 0 0 0 1 0 0 1 0 1 1 1 1 0 0 0 0 1 0 0 0 0 0 0 0 0 0 0 -0 0 0 0 0 0 0 0 0 0 0 0 0
0 0 0 0 0 0 0 0 0 0 0 0 0 0 0 0 0 0 0 0 0 0 0 0 0 -0 -0 0 0 0 0 0 0 0 0 0 0 0 0 0 0 0 0
0 0 0 0 0 0 0 0 0 0 0 0 0 0 0 0 0 0 0 0 0 0 -0 0 0 -0 -0 -0 0 0 0 0 0 0 0 0 0 0 0 0 0 0 0
-0 -0 -0 -0 -0 0 0 0 0 0 0 0 0 0 0 0 0 0 0 -0 0 -0 -0 -0 -0 -0 -0 0 0 0 0 0 0 0 0 0 0 0 0 0 0 0 0
-0 -0 -0 -0 -0 0 0 0 0 0 0 0 0 0 0 0 0 0 0 -0 -0 -0 0 0 -0 0 -0 -0 0 -0 -0 0 0 0 0 0 0 0 0 0 0 0 0
-0 -0 -0 -0 0 -0 -0 0 0 -0 -0 -0 0 0 0 0 -0 -0 -0 -0 -0 0 -0 0 -0 0 0 0 0 0 0 -0 0 0 0 0 0 0 0 0 0 0 0
-0 -0 -0 -0 -0 -0 -0 -0 -0 -0 -0 -0 -0 0 0 -0 -0 -0 -0 -0 -0 -0 0 0 0 0 -0 -0 0 0 0 0 0 0 0 0 0 0 0 0 0 0 0
-0 -0 -0 -0 -0 -0 -0 -0 -0 -0 -0 -0 -0 -0 -0 -0 -0 -0 -0 -0 -0 -0 0 0 0 -0 -0 -0 -0 -0 0 0 0 0 0 0 0 0 0 0 0 0 0
-0 -0 -0 -0 -0 -0 -0 -0 -0 -0 -0 -0 -0 -0 -0 -0 -0 -0 -0 -0 -0 -0 0 0 0 0 0 -0 -0 0 0 -0 0 0 0 0 0 0 0 0 -0 -0 0
-0 -0 -0 -0 -0 -0 -0 -0 -0 -0 -0 -0 -0 -0 -0 -0 -0 -0 -0 -0 -0 0 0 0 0 0 0 0 0 -0 0 0 0 0 0 0 0 0 0 0 0 -0 0
-0 -0 -0 -0 -0 -0 -0 -0 -0 -0 -0 -0 -0 -0 -0 -0 -0 -0 0 -0 0 0 0 0 0 0 0 0 -0 -0 0 0 0 0 0 0 -0 -0 0 0 0 0 0
-0 -0 -0 -0 -0 -0 -0 -0 -0 -0 -0 -0 -0 -0 -0 -0 -0 -0 -0 -0 -0 0 0 0 0 0 0 0 -0 -0 -0 0 0 0 0 0 0 0 -0 -0 0 0 0
-0 -0 -0 -0 -0 -0 -0 -0 -0 -0 -0 -0 -0 -0 -0 -0 -0 -0 -0 -0 -0 0 0 0 0 0 0 0 0 0 -0 0 0 0 0 0 0 -0 -0 -0 -0 -0 0
-0 -0 -0 -0 -0 -0 -0 -0 -0 -0 -0 -0 -0 -0 -0 -0 -0 0 0 -0 -0 -0 0 0 -0 0 0 0 0 0 -0 0 0 0 0 0 0 0 -0 -0 -0 -0 0
0 -0 -0 -0 -0 -0 -0 -0 -0 -0 -0 -0 -0 0 0 0 0 0 0 0 0 0 -0 -0 -0 0 0 -0 0 0 0 -0 0 0 0 0 0 0 -0 0 0 0 -0
0 -0 -0 -0 -0 -0 -0 -0 -0 -0 -0 -0 -0 0 0 0 0 0 0 0 0 0 0 0 0 0 0 0 0 0 0 0 0 -0 0 0 0 0 -0 -0 -0 -0 -0
0 -0 -0 -0 -0 -0 -0 -0 -0 -0 -0 -0 -0 -0 0 0 0 0 0 0 0 0 0 0 0 0 0 0 0 0 0 0 0 0 -0 0 0 0 0 -0 0 0 -0
0 -0 -0 -0 -0 -0 -0 -0 -0 -0 -0 -0 -0 -0 -0 0 -0 0 0 0 0 0 0 0 0 0 0 0 0 0 0 0 0 -0 -0 0 0 0 0 -0 -0 -0 -0
0 0 -0 -0 -0 -0 -0 -0 -0 -0 -0 -0 -0 -0 -0 -0 0 0 0 0 0 0 0 0 0 0 0 0 0 0 0 0 0 -0 0 0 0 0 -0 -0 -0 -0 0
0 0 0 0 -0 -0 -0 -0 -0 -0 -0 -0 -0 -0 -0 -0 0 0 0 0 0 0 0 0 0 0 0 0 0 0 0 -0 -0 0 -0 0 0 -0 0 0 0 0 0
1 0 0 0 -0 -0 -0 -0 -0 -0 -0 -0 -0 -0 -0 -0 0 0 0 0 0 -0 -0 0 0 0 -0 -0 0 -0 -0 0 -0 0 0 -0 0 0 0 0 0 0 0
Wind_Speed_500mb
75 68 62 52 44 39 43 44 65 57 59 50 49 48 45 34 29 25 25 26 23 26 32 38 35 33 33 34 29 30 31 30 28 22 24 26 28 26 30 30 27 32 29
77 72 58 41 31 30 38 45 48 58 62 50 46 42 36 27 22 20 22 22 22 25 32 35 33 31 28 24 23 29 34 34 33 28 21 17 21 30 30 32 35 30 30
72 62 51 36 24 32 36 39 42 49 51 43 43 38 30 23 20 20 19 19 18 22 26 27 27 23 18 26 27 28 30 29 32 36 21 15 19 30 35 34 30 32 35
56 55 48 23 26 30 33 36 42 48 49 52 41 39 27 19 18 15 15 18 18 21 22 27 18 13 15 20 18 19 24 27 31 32 39 21 14 26 25 30 41 36 32
56 53 38 28 28 31 35 42 46 50 51 45 35 30 21 17 11 12 14 13 18 21 11 14 8 10 14 9 10 6 13 21 25 29 27 24 20 33 23 27 30 33 30
50 30 27 32 33 36 41 46 51 46 43 38 31 23 21 14 11 8 10 21 18 12 14 9 8 11 7 6 5 8 5 10 15 22 21 22 22 21 26 23 30 27 26
21 29 35 39 42 45 47 49 48 45 39 33 27 21 16 13 8 7 8 10 12 11 10 11 10 8 7 7 7 9 9 8 9 13 20 17 17 17 14 17 24 20 21
24 33 37 42 47 50 51 49 46 42 36 30 26 19 15 9 5 5 6 7 4 11 12 11 7 4 3 5 8 7 9 9 9 9 15 16 13 12 15 17 25 23 17
31 38 42 48 52 52 49 47 43 39 34 29 24 18 13 11 15 9 11 6 14 9 11 8 4 4 2 4 6 5 7 7 5 6 14 14 16 2 15 20 28 26 26
40 45 49 52 51 48 46 42 39 36 32 28 23 17 14 12 9 9 12 14 14 13 11 6 2 2 3 5 9 5 7 8 7 6 11 10 7 12 12 21 22 23 35
46 52 52 51 49 46 43 40 37 34 31 25 21 18 14 13 10 11 13 15 13 12 8 6 4 3 3 5 5 9 8 9 15 16 14 10 9 12 15 18 20 28 43
50 52 54 52 49 45 42 38 35 32 30 24 20 16 13 12 10 13 16 16 14 11 8 7 5 3 5 5 8 5 19 15 17 14 14 13 11 12 17 28 32 35 46
51 52 52 51 47 44 41 37 33 32 28 25 19 16 12 10 10 15 14 16 15 12 11 8 5 4 2 4 5 3 15 17 12 13 16 21 19 27 28 35 29 38 62
50 51 50 47 45 43 39 35 33 32 29 24 19 14 10 9 11 14 14 16 15 14 13 11 9 7 7 12 9 11 20 11 11 13 21 23 22 31 35 37 45 50 87
50 52 51 48 46 43 38 34 33 32 29 24 20 15 13 14 17 16 16 17 16 15 16 15 13 11 11 7 15 13 16 19 16 19 20 27 27 33 47 54 57 55 90
48 49 49 49 47 43 39 37 34 32 30 26 22 20 19 21 19 16 17 19 19 18 22 19 13 15 8 14 19 22 17 20 20 21 20 26 29 34 41 44 56 70 102
39 44 48 48 46 44 40 38 36 33 32 29 26 25 24 22 21 19 18 17 18 21 18 16 17 12 17 10 10 20 19 20 21 21 26 28 30 40 43 47 52 58 84
33 40 43 42 43 43 42 38 36 36 33 31 29 27 25 21 21 19 18 18 23 24 24 18 18 17 15 6 8 20 12 17 25 32 33 36 33 49 48 50 57 58 74
32 38 40 41 41 44 44 41 38 36 34 32 30 29 26 22 20 20 16 14 14 14 16 22 20 17 17 9 13 22 14 27 28 31 29 31 40 44 46 49 57 58 67
30 37 42 43 42 45 45 44 41 39 37 35 33 32 26 24 22 19 17 15 12 8 9 18 24 19 20 15 14 30 16 28 31 29 34 36 49 45 45 48 51 48 62
23 34 42 45 44 46 45 45 43 41 38 35 35 33 30 28 23 18 17 17 14 12 9 16 20 21 19 17 17 28 27 30 36 34 45 48 48 48 46 49 51 62 61
25 38 45 46 45 47 46 45 45 42 40 38 37 35 33 29 22 19 17 17 16 13 13 20 21 21 24 21 25 28 35 34 37 44 45 52 50 49 44 42 40 42 46
31 41 46 47 46 48 47 45 45 45 44 41 40 38 35 29 26 23 20 18 18 15 19 18 23 22 19 26 25 28 38 38 36 42 48 46 40 36 34 39 42 47 38
30 41 46 48 48 49 47 44 44 46 46 46 44 41 38 33 30 25 22 19 20 20 20 24 22 23 20 21 25 33 39 38 38 43 43 39 43 35 40 42 42 32 34
20 36 44 47 48 49 49 46 46 49 48 47 46 44 41 40 34 30 24 21 21 22 21 21 22 22 22 23 28 36 34 27 40 46 41 42 35 29 37 39 29 30 34
8 29 41 46 48 50 51 51 49 51 51 50 48 47 44 44 38 35 32 32 29 34 29 27 24 23 22 26 29 38 34 33 33 29 32 33 30 30 33 33 32 29 35
Wind_Direction_500mb
274 273 273 271 251 241 232 216 208 205 199 199 197 197 200 200 207 217 232 245 258 273 268 270 273 266 260 263 255 244 229 231 225 224 231 221 216 216 215 215 222 222 214
271 269 264 265 233 220 211 205 202 195 195 192 190 196 197 202 206 224 234 246 262 268 268 269 271 268 264 257 239 237 235 234 225 220 209 205 216 214 218 219 219 215 212
261 266 264 246 222 205 197 190 185 185 177 182 178 181 183 187 200 227 245 262 271 271 264 267 264 261 251 242 241 240 232 233 227 220 193 187 211 194 205 214 216 219 209
259 252 253 199 199 195 179 176 172 169 165 168 173 175 180 198 216 211 242 240 265 255 258 270 252 238 231 248 257 251 238 223 219 214 207 207 225 181 186 211 212 218 213
247 248 237 178 180 172 166 162 159 156 166 158 168 172 181 207 218 226 240 268 263 259 239 262 216 235 255 253 246 256 232 205 207 197 193 216 225 199 230 190 207 210 210
232 221 141 159 163 158 157 154 152 157 154 158 163 158 177 177 199 233 255 259 266 244 204 210 216 238 244 203 212 211 229 200 197 194 202 207 210 220 224 199 194 191 197
138 160 163 159 157 155 153 151 153 152 153 155 155 160 161 169 189 226 270 249 261 211 169 189 197 219 215 176 215 211 211 230 211 207 206 206 210 241 226 207 185 174 172
163 165 163 157 154 152 151 152 152 152 155 155 156 156 170 161 186 226 215 230 203 160 206 174 205 178 174 189 229 221 231 232 244 217 198 198 214 238 224 210 176 162 143
158 155 153 151 151 150 152 153 153 153 155 157 156 160 165 166 195 207 148 185 152 189 160 176 181 121 140 266 276 241 221 216 223 225 216 216 218 262 246 209 171 170 150
152 149 149 149 149 149 151 151 152 155 158 157 160 166 168 179 170 158 151 163 170 158 169 169 187 225 209 266 265 225 221 239 242 194 211 207 232 268 206 180 180 169 148
152 152 150 149 149 149 151 152 154 156 157 158 165 168 167 180 184 174 168 171 172 171 173 194 206 249 237 265 246 230 180 215 213 221 202 209 218 188 151 152 162 164 159
155 153 151 152 153 151 155 155 156 156 160 162 168 179 178 183 196 168 167 169 169 169 191 199 212 231 268 294 275 240 183 192 203 205 210 201 166 154 154 138 130 144 164
155 154 156 157 156 157 159 158 157 161 161 163 165 164 183 193 192 161 169 166 169 171 185 181 183 181 210 36 111 140 167 175 183 184 187 162 151 138 135 147 133 146 158
158 159 162 161 160 162 161 160 161 162 161 164 167 165 168 166 158 152 156 167 166 172 173 162 159 118 95 86 83 93 131 151 142 134 127 142 140 144 145 139 147 138 142
167 166 166 164 164 163 162 162 163 162 162 162 160 156 157 150 150 154 156 162 165 168 163 154 136 134 102 109 89 76 112 144 138 129 141 149 143 149 146 141 144 153 152
172 171 169 167 165 165 164 164 165 163 161 160 156 151 146 145 147 150 154 161 162 153 154 151 150 106 144 118 107 95 102 117 129 134 136 141 135 146 155 148 149 163 160
178 177 172 169 167 167 166 167 166 163 162 159 154 148 144 146 146 148 148 148 150 151 158 157 159 154 165 127 113 113 91 104 116 132 131 133 143 150 150 152 155 155 167
180 180 175 173 171 166 167 166 166 165 164 162 156 153 151 148 152 156 159 166 174 167 164 164 194 181 177 175 129 128 106 118 116 125 124 114 116 142 146 151 157 158 165
184 182 178 175 173 170 167 167 167 168 168 166 162 159 156 150 152 156 162 164 156 154 169 176 168 164 164 157 123 127 122 124 116 124 128 120 125 135 144 146 158 159 167
183 181 177 175 175 176 169 170 170 171 173 171 168 166 164 158 155 158 163 161 143 135 129 158 149 160 153 148 135 130 149 128 127 123 128 129 128 126 133 137 142 147 160
189 181 177 177 179 177 174 174 174 176 174 172 171 168 166 161 156 153 154 155 162 149 152 135 141 147 155 139 138 139 139 127 119 120 130 131 132 129 132 131 130 134 141
207 184 179 179 180 180 179 179 179 176 174 174 174 172 169 169 170 165 154 157 162 158 132 128 120 141 149 138 141 142 139 131 129 130 132 128 131 133 143 144 142 144 144
193 185 182 181 182 184 184 184 184 177 175 175 176 178 177 175 178 176 167 166 153 154 143 140 130 137 146 144 144 148 146 140 137 149 146 141 144 146 150 144 145 136 142
191 186 183 184 184 186 187 186 186 181 179 179 178 181 181 178 181 180 178 174 167 162 158 154 149 152 154 160 152 151 149 146 150 158 152 146 143 139 147 146 145 145 159
198 192 189 189 190 189 189 188 189 185 185 185 183 184 185 182 185 183 186 186 182 177 171 168 163 164 165 171 159 151 154 150 164 163 161 158 152 153 157 157 160 166 172
223 202 199 197 195 193 191 189 191 189 189 189 190 189 188 190 190 188 193 196 191 194 187 174 176 182 185 189 171 160 165 166 175 162 168 175 177 176 177 178 177 180 180
Wind_Speed_850mb
75 68 62 52 44 39 43 44 65 57 59 50 49 48 45 34 29 25 25 26 23 26 32 38 35 33 33 34 29 30 31 30 28 22 24 26 28 26 30 30 27 32 29
77 72 58 41 31 30 38 45 48 58 62 50 46 42 36 27 22 20 22 22 22 25 32 35 33 31 28 24 23 29 34 34 33 28 21 17 21 30 30 32 35 30 30
72 62 51 36 24 32 36 39 42 49 51 43 43 38 30 23 20 20 19 19 18 22 26 27 27 23 18 26 27 28 30 29 32 36 21 15 19 30 35 34 30 32 35
56 55 48 23 26 30 33 36 42 48 49 52 41 39 27 19 18 15 15 18 18 21 22 27 18 13 15 20 18 19 24 27 31 32 39 21 14 26 25 30 41 36 32
56 53 38 28 28 31 35 42 46 50 51 45 35 30 21 17 11 12 14 13 18 21 11 14 8 10 14 9 10 6 13 21 25 29 27 24 20 33 23 27 30 33 30
50 30 27 32 33 36 41 46 51 46 43 38 31 23 21 14 11 8 10 21 18 12 14 9 8 11 7 6 5 8 5 10 15 22 21 22 22 21 26 23 30 27 26
21 29 35 39 42 45 47 49 48 45 39 33 27 21 16 13 8 7 8 10 12 11 10 11 10 8 7 7 7 9 9 8 9 13 20 17 17 17 14 17 24 20 21
24 33 37 42 47 50 51 49 46 42 36 30 26 19 15 9 5 5 6 7 4 11 12 11 7 4 3 5 8 7 9 9 9 9 15 16 13 12 15 17 25 23 17
31 38 42 48 52 52 49 47 43 39 34 29 24 18 13 11 15 9 11 6 14 9 11 8 4 4 2 4 6 5 7 7 5 6 14 14 16 2 15 20 28 26 26
40 45 49 52 51 48 46 42 39 36 32 28 23 17 14 12 9 9 12 14 14 13 11 6 2 2 3 5 9 5 7 8 7 6 11 10 7 12 12 21 22 23 35
46 52 52 51 49 46 43 40 37 34 31 25 21 18 14 13 10 11 13 15 13 12 8 6 4 3 3 5 5 9 8 9 15 16 14 10 9 12 15 18 20 28 43
50 52 54 52 49 45 42 38 35 32 30 24 20 16 13 12 10 13 16 16 14 11 8 7 5 3 5 5 8 5 19 15 17 14 14 13 11 12 17 28 32 35 46
51 52 52 51 47 44 41 37 33 32 28 25 19 16 12 10 10 15 14 16 15 12 11 8 5 4 2 4 5 3 15 17 12 13 16 21 19 27 28 35 29 38 62
50 51 50 47 45 43 39 35 33 32 29 24 19 14 10 9 11 14 14 16 15 14 13 11 9 7 7 12 9 11 20 11 11 13 21 23 22 31 35 37 45 50 87
50 52 51 48 46 43 38 34 33 32 29 24 20 15 13 14 17 16 16 17 16 15 16 15 13 11 11 7 15 13 16 19 16 19 20 27 27 33 47 54 57 55 90
48 49 49 49 47 43 39 37 34 32 30 26 22 20 19 21 19 16 17 19 19 18 22 19 13 15 8 14 19 22 17 20 20 21 20 26 29 34 41 44 56 70 102
39 44 48 48 46 44 40 38 36 33 32 29 26 25 24 22 21 19 18 17 18 21 18 16 17 12 17 10 10 20 19 20 21 21 26 28 30 40 43 47 52 58 84
33 40 43 42 43 43 42 38 36 36 33 31 29 27 25 21 21 19 18 18 23 24 24 18 18 17 15 6 8 20 12 17 25 32 33 36 33 49 48 50 57 58 74
32 38 40 41 41 44 44 41 38 36 34 32 30 29 26 22 20 20 16 14 14 14 16 22 20 17 17 9 13 22 14 27 28 31 29 31 40 44 46 49 57 58 67
30 37 42 43 42 45 45 44 41 39 37 35 33 32 26 24 22 19 17 15 12 8 9 18 24 19 20 15 14 30 16 28 31 29 34 36 49 45 45 48 51 48 62
23 34 42 45 44 46 45 45 43 41 38 35 35 33 30 28 23 18 17 17 14 12 9 16 20 21 19 17 17 28 27 30 36 34 45 48 48 48 46 49 51 62 61
25 38 45 46 45 47 46 45 45 42 40 38 37 35 33 29 22 19 17 17 16 13 13 20 21 21 24 21 25 28 35 34 37 44 45 52 50 49 44 42 40 42 46
31 41 46 47 46 48 47 45 45 45 44 41 40 38 35 29 26 23 20 18 18 15 19 18 23 22 19 26 25 28 38 38 36 42 48 46 40 36 34 39 42 47 38
30 41 46 48 48 49 47 44 44 46 46 46 44 41 38 33 30 25 22 19 20 20 20 24 22 23 20 21 25 33 39 38 38 43 43 39 43 35 40 42 42 32 34
20 36 44 47 48 49 49 46 46 49 48 47 46 44 41 40 34 30 24 21 21 22 21 21 22 22 22 23 28 36 34 27 40 46 41 42 35 29 37 39 29 30 34
8 29 41 46 48 50 51 51 49 51 51 50 48 47 44 44 38 35 32 32 29 34 29 27 24 23 22 26 29 38 34 33 33 29 32 33 30 30 33 33 32 29 35
Wind_Direction_850mb
274 273 273 271 251 241 232 216 208 205 199 199 197 197 200 200 207 217 232 245 258 273 268 270 273 266 260 263 255 244 229 231 225 224 231 221 216 216 215 215 222 222 214
271 269 264 265 233 220 211 205 202 195 195 192 190 196 197 202 206 224 234 246 262 268 268 269 271 268 264 257 239 237 235 234 225 220 209 205 216 214 218 219 219 215 212
261 266 264 246 222 205 197 190 185 185 177 182 178 181 183 187 200 227 245 262 271 271 264 267 264 261 251 242 241 240 232 233 227 220 193 187 211 194 205 214 216 219 209
259 252 253 199 199 195 179 176 172 169 165 168 173 175 180 198 216 211 242 240 265 255 258 270 252 238 231 248 257 251 238 223 219 214 207 207 225 181 186 211 212 218 213
247 248 237 178 180 172 166 162 159 156 166 158 168 172 181 207 218 226 240 268 263 259 239 262 216 235 255 253 246 256 232 205 207 197 193 216 225 199 230 190 207 210 210
232 221 141 159 163 158 157 154 152 157 154 158 163 158 177 177 199 233 255 259 266 244 204 210 216 238 244 203 212 211 229 200 197 194 202 207 210 220 224 199 194 191 197
138 160 163 159 157 155 153 151 153 152 153 155 155 160 161 169 189 226 270 249 261 211 169 189 197 219 215 176 215 211 211 230 211 207 206 206 210 241 226 207 185 174 172
163 165 163 157 154 152 151 152 152 152 155 155 156 156 170 161 186 226 215 230 203 160 206 174 205 178 174 189 229 221 231 232 244 217 198 198 214 238 224 210 176 162 143
158 155 153 151 151 150 152 153 153 153 155 157 156 160 165 166 195 207 148 185 152 189 160 176 181 121 140 266 276 241 221 216 223 225 216 216 218 262 246 209 171 170 150
152 149 149 149 149 149 151 151 152 155 158 157 160 166 168 179 170 158 151 163 170 158 169 169 187 225 209 266 265 225 221 239 242 194 211 207 232 268 206 180 180 169 148
152 152 150 149 149 149 151 152 154 156 157 158 165 168 167 180 184 174 168 171 172 171 173 194 206 249 237 265 246 230 180 215 213 221 202 209 218 188 151 152 162 164 159
155 153 151 152 153 151 155 155 156 156 160 162 168 179 178 183 196 168 167 169 169 169 191 199 212 231 268 294 275 240 183 192 203 205 210 201 166 154 154 138 130 144 164
155 154 156 157 156 157 159 158 157 161 161 163 165 164 183 193 192 161 169 166 169 171 185 181 183 181 210 36 111 140 167 175 183 184 187 162 151 138 135 147 133 146 158
158 159 162 161 160 162 161 160 161 162 161 164 167 165 168 166 158 152 156 167 166 172 173 162 159 118 95 86 83 93 131 151 142 134 127 142 140 144 145 139 147 138 142
167 166 166 164 164 163 162 162 163 162 162 162 160 156 157 150 150 154 156 162 165 168 163 154 136 134 102 109 89 76 112 144 138 129 141 149 143 149 146 141 144 153 152
172 171 169 167 165 165 164 164 165 163 161 160 156 151 146 145 147 150 154 161 162 153 154 151 150 106 144 118 107 95 102 117 129 134 136 141 135 146 155 148 149 163 160
178 177 172 169 167 167 166 167 166 163 162 159 154 148 144 146 146 148 148 148 150 151 158 157 159 154 165 127 113 113 91 104 116 132 131 133 143 150 150 152 155 155 167
180 180 175 173 171 166 167 166 166 165 164 162 156 153 151 148 152 156 159 166 174 167 164 164 194 181 177 175 129 128 106 118 116 125 124 114 116 142 146 151 157 158 165
184 182 178 175 173 170 167 167 167 168 168 166 162 159 156 150 152 156 162 164 156 154 169 176 168 164 164 157 123 127 122 124 116 124 128 120 125 135 144 146 158 159 167
183 181 177 175 175 176 169 170 170 171 173 171 168 166 164 158 155 158 163 161 143 135 129 158 149 160 153 148 135 130 149 128 127 123 128 129 128 126 133 137 142 147 160
189 181 177 177 179 177 174 174 174 176 174 172 171 168 166 161 156 153 154 155 162 149 152 135 141 147 155 139 138 139 139 127 119 120 130 131 132 129 132 131 130 134 141
207 184 179 179 180 180 179 179 179 176 174 174 174 172 169 169 170 165 154 157 162 158 132 128 120 141 149 138 141 142 139 131 129 130 132 128 131 133 143 144 142 144 144
193 185 182 181 182 184 184 184 184 177 175 175 176 178 177 175 178 176 167 166 153 154 143 140 130 137 146 144 144 148 146 140 137 149 146 141 144 146 150 144 145 136 142
191 186 183 184 184 186 187 186 186 181 179 179 178 181 181 178 181 180 178 174 167 162 158 154 149 152 154 160 152 151 149 146 150 158 152 146 143 139 147 146 145 145 159
198 192 189 189 190 189 189 188 189 185 185 185 183 184 185 182 185 183 186 186 182 177 171 168 163 164 165 171 159 151 154 150 164 163 161 158 152 153 157 157 160 166 172
223 202 199 197 195 193 191 189 191 189 189 189 190 189 188 190 190 188 193 196 191 194 187 174 176 182 185 189 171 160 165 166 175 162 168 175 177 176 177 178 177 180 180